Regional Weather Roundup
Issued by NWS Jackson, KY

Home | Current Version | Previous Version | Graphics & Text | Print | Product List | Glossary On
Versions: 1 2 3 4 5 6 7 8 9 10 11 12 13 14 15 16 17 18 19 20 21 22 23 24 25 26 27 28
000
ASUS43 KJKL 080110
RWRJKL

EAST KENTUCKY HOURLY WEATHER ROUNDUP
NATIONAL WEATHER SERVICE JACKSON KY
800 PM EST WED DEC 07 2016

NOTE: "FAIR" INDICATES FEW OR NO CLOUDS BELOW 12,000 FEET WITH
NO SIGNIFICANT WEATHER AND/OR OBSTRUCTIONS TO VISIBILITY.

* THESE REPORTS ARE NOT UNDER NWS QUALITY CONTROL AND MAY NOT
  REPORT WEATHER SUCH AS PRECIPITATION AND FOG.

KYZ079-080-083-085-087-088-110-112-115-119-120-080200
...EASTERN KENTUCKY...

CITY           SKY/WX    TMP DP  RH WIND       PRES   REMARKS
JACKSON        CLOUDY    39  29  67 CALM      30.10F
LONDON         PTCLDY    34  29  82 N5        30.12R WCI  30
SOMERSET*      CLOUDY    37  25  60 CALM      30.16R
MONTICELLO*    CLEAR     30  27  88 W13       30.17R WCI  20
WILLIAMSBURG*  PTCLDY    36  34  93 CALM      30.12S
MIDDLESBORO*   PTCLDY    37  33  85 CALM      30.12S
HARLAN APT*    PTCLDY    36  32  87 CALM      30.10F
PIKE CO APT*     N/A     38  28  65 CALM      30.10F
MOREHEAD APT*  CLOUDY    37  25  60 NW5       30.15R WCI  34
ASHLAND*       CLOUDY    39  28  65 CALM      30.11F
$$

KYZ035-036-041-042-044-050-067-078-099-080200
...CENTRAL KENTUCKY...

CITY           SKY/WX    TMP DP  RH WIND       PRES   REMARKS
MT STERLING*   CLOUDY    34  28  80 NW3       30.17R
FLEMING/MASON* PTCLDY    35  24  63 NW5       30.16R WCI  31
DANVILLE*      CLOUDY    34  28  80 N5        30.18R WCI  30
LEXINGTON      CLOUDY    37  25  61 NW8       30.17R WCI  31
FRANKFORT      CLOUDY    37  22  54 CALM      30.17R
LOUISVILLE     CLOUDY    39  21  48 NW7       30.19S WCI  34
LEBANON*       MOCLDY    37  27  65 NW5       30.18S WCI  34
GLASGOW*       CLOUDY    37  25  63 N5        30.17F WCI  33
BOWLING GREEN  PTCLDY    40  25  55 VRB6      30.20R
$$

KYZ091>093-OHZ055-061-077-WVZ005-015-034-035-042-080200
...SOUTHERN OHIO/WEST VIRGINIA...

CITY           SKY/WX    TMP DP  RH WIND       PRES   REMARKS
COVINGTON      CLOUDY    34  24  67 CALM      30.15R
COLUMBUS       CLOUDY    35  25  66 W8        30.11S WCI  29
DAYTON         CLOUDY    32  24  72 SW12      30.12S WCI  23
WILMINGTON     CLOUDY    34  23  64 W9        30.12R WCI  27
HUNTINGTON     MOCLDY    41  23  48 CALM      30.11F
CHARLESTON     PTCLDY    35  28  75 CALM      30.10S
PINEVILLE*     CLEAR     31  28  89 MISG      30.13F
BECKLEY        CLOUDY    31  22  69 S8        30.06S WCI  23
BLUEFIELD      CLEAR     34  28  79 SW5       30.06S WCI  30
LOGAN CO APT*    N/A     37  27  65 CALM      30.09S
$$

VAZ002-007-008-TNZ017-027-036-066-071-080200
...SOUTHWEST VIRGINIA/EAST TENNESSEE...

CITY           SKY/WX    TMP DP  RH WIND       PRES   REMARKS
WISE*          PTCLDY    34  27  75 CALM      30.08R
JONESVILLE*      N/A     37  36  93 CALM      30.11S
ABINGDON*      MOCLDY    42  33  70 CALM      30.06S
BRISTOL        PTCLDY    43  32  65 CALM      30.07R
MORRISTOWN*    CLOUDY    45  37  76 CALM      30.07S
SEVIERVILLE*   CLOUDY    45  37  76 W5        30.08S
KNOXVILLE      CLOUDY    44  35  70 N5        30.08S
OAK RIDGE      PTCLDY    43  34  70 CALM      30.11S
CROSSVILLE     CLOUDY    37  32  82 NW5       30.12R WCI  33
NASHVILLE      CLOUDY    43  28  55 NW6       30.19R
$$

...KEY TO REMARKS...
VSB - VISIBILITY IN MILES
WCI - WIND CHILL INDEX
HX  - HEAT INDEX

$$




USA.gov is the U.S. government's official web portal to all federal, state and local government web resources and services.